Погода в Солонцовском

Россия / Волгоградская область     50°10′51″N   42°24′48″E
темп.,
°C
ветер,
м/с
пор.,
м/с
влажн.,
%
обл.,
%
осадки,
мм/ч
давл.,
гПа
погр.,
м
14 июня, пн
пн1400:00+16юв35882 0.0 101275
03:00+16ююв229059 0.0 101227
06:00+18вюв2385100 0.0 1013106
09:00+22вюв3371100 0.0 1013648
12:00+24в2159100 0.5 10131116
15:00+25ссв1157100 1.6 10131344
18:00+24св336981 0.1 1013456
21:00+18в229098 0.4 101324
15 июня, вт
вт1500:00+17в2293100 0.0 101327
03:00+16св2396100 0.0 101251
06:00+17ссв249147 0.0 1012187
09:00+21ссв3475100 0.0 1011855
12:00+23с446590 0.1 10101302
15:00+22ссз4473100 2.8 1010949
18:00+20сз468497 0.6 1009502
21:00+17сз34969 0.6 100985
16 июня, ср
ср1600:00+16зсз34961 0.0 100981
03:00+15зсз33945 0.0 101051
06:00+18зсз248769 0.0 1010155
09:00+22сз34715 0.0 1011664
12:00+25зсз34595 0.0 10111344
15:00+27зсз45524 0.0 10111775
18:00+26ссз24623 0.0 1011926
21:00+21ссв33784 0.0 101325
17 июня, чт
чт1700:00+19ссв338991 0.0 101327
03:00+18с3491100 0.0 101471
06:00+19ссв4788100 0.0 1014227
09:00+22св677588 0.0 1016738
12:00+25св6664100 0.0 10161395
15:00+25св785933 0.1 10171448
18:00+22св710620 0.0 1018963
21:00+17св412800 0.0 1020268
18 июня, пт
пт1800:00+16св613770 0.0 1020378
03:00+15св613770 0.0 1021337
06:00+15св49800 0.0 1023275
09:00+20всв68560 0.0 10231101
12:00+22всв68480 0.0 10241752
15:00+23св68480 0.0 10231989
18:00+22всв58591 0.0 1024901
21:00+17всв47750 0.0 1025122